EN

Hourly Weather Brisbane

Today, 4 December, Friday

Time Temperature Precipitation Wind Pressure Humidity
00:00 +23°C° 0 mm 0 mps 762 mmHg 77%
01:00 +23°C° 0 mm 0 mps 762 mmHg 78%
02:00 +23°C° 0 mm 0 mps 762 mmHg 77%
03:00 +25°C° 0 mm 1 mps 762 mmHg 76%
04:00 +25°C° 0 mm 1 mps 762 mmHg 77%
05:00 +26°C° 0 mm 1 mps 761 mmHg 74%
06:00 +27°C° 0 mm 2 mps 761 mmHg 71%
07:00 +27°C° 0 mm 2 mps 761 mmHg 68%
08:00 +29°C° 0 mm 2 mps 760 mmHg 61%
09:00 +32°C° 0 mm 2 mps 760 mmHg 53%
10:00 +35°C° 0 mm 2 mps 759 mmHg 46%
11:00 +36°C° 0 mm 3 mps 759 mmHg 42%
12:00 +38°C° 0 mm 3 mps 758 mmHg 38%
13:00 +39°C° 0 mm 3 mps 757 mmHg 34%
14:00 +38°C° 0 mm 4 mps 757 mmHg 39%
15:00 +36°C° 0 mm 4 mps 756 mmHg 44%
16:00 +35°C° 0 mm 5 mps 755 mmHg 49%
17:00 +32°C° 0.3 mm 5 mps 756 mmHg 57%
18:00 +29°C° 0.3 mm 5 mps 756 mmHg 64%
19:00 +27°C° 0.3 mm 4 mps 757 mmHg 71%
20:00 +26°C° 1.1 mm 3 mps 757 mmHg 75%
21:00 +26°C° 1.1 mm 3 mps 758 mmHg 79%
22:00 +25°C° 1.1 mm 2 mps 759 mmHg 83%
23:00 +25°C° 0.1 mm 2 mps 758 mmHg 84%

Tomorrow, 5 December, Saturday

Time Temperature Precipitation Wind Pressure Humidity
00:00 +25°C° 0.1 mm 1 mps 758 mmHg 84%
01:00 +24°C° 0.1 mm 1 mps 757 mmHg 84%
02:00 +24°C° 0 mm 1 mps 757 mmHg 85%
03:00 +24°C° 0 mm 1 mps 757 mmHg 86%
04:00 +24°C° 0 mm 1 mps 757 mmHg 86%
05:00 +25°C° 0 mm 1 mps 757 mmHg 81%
06:00 +26°C° 0 mm 1 mps 758 mmHg 77%
07:00 +28°C° 0 mm 1 mps 758 mmHg 72%
08:00 +30°C° 0 mm 1 mps 758 mmHg 61%
09:00 +33°C° 0 mm 1 mps 758 mmHg 51%
10:00 +37°C° 0 mm 2 mps 758 mmHg 41%
11:00 +37°C° 0 mm 3 mps 757 mmHg 40%
12:00 +37°C° 0 mm 4 mps 757 mmHg 40%
13:00 +37°C° 0 mm 5 mps 756 mmHg 39%
14:00 +35°C° 0 mm 5 mps 756 mmHg 41%
15:00 +34°C° 0 mm 6 mps 755 mmHg 42%
16:00 +33°C° 0 mm 6 mps 755 mmHg 43%
17:00 +32°C° 0 mm 5 mps 755 mmHg 50%
18:00 +29°C° 0 mm 5 mps 755 mmHg 57%
19:00 +28°C° 0 mm 5 mps 755 mmHg 64%
20:00 +27°C° 0 mm 4 mps 756 mmHg 68%
21:00 +27°C° 0 mm 4 mps 757 mmHg 71%
22:00 +26°C° 0 mm 4 mps 757 mmHg 74%
23:00 +26°C° 0 mm 4 mps 756 mmHg 73%

Day after tomorrow, 6 December, Sunday

Time Temperature Precipitation Wind Pressure Humidity
00:00 +26°C° 0 mm 4 mps 756 mmHg 71%
01:00 +25°C° 0 mm 3 mps 755 mmHg 70%
02:00 +25°C° 0 mm 3 mps 755 mmHg 72%
03:00 +24°C° 0 mm 3 mps 755 mmHg 74%
04:00 +24°C° 0 mm 3 mps 755 mmHg 77%
05:00 +25°C° 0 mm 3 mps 756 mmHg 72%
06:00 +26°C° 0 mm 2 mps 756 mmHg 67%
07:00 +27°C° 0 mm 2 mps 756 mmHg 62%
08:00 +30°C° 0 mm 2 mps 756 mmHg 52%
09:00 +34°C° 0 mm 3 mps 756 mmHg 43%
10:00 +36°C° 0 mm 3 mps 756 mmHg 34%
11:00 +38°C° 0 mm 4 mps 755 mmHg 32%
12:00 +40°C° 0 mm 4 mps 754 mmHg 30%
13:00 +42°C° 0 mm 5 mps 754 mmHg 27%
14:00 +41°C° 0 mm 5 mps 753 mmHg 31%
15:00 +40°C° 0 mm 5 mps 753 mmHg 34%
16:00 +39°C° 0 mm 5 mps 752 mmHg 37%
17:00 +36°C° 0 mm 5 mps 753 mmHg 45%
18:00 +34°C° 0 mm 5 mps 753 mmHg 54%
19:00 +30°C° 0 mm 5 mps 753 mmHg 62%
20:00 +30°C° 0 mm 4 mps 754 mmHg 64%
21:00 +29°C° 0 mm 4 mps 754 mmHg 66%
22:00 +29°C° 0 mm 3 mps 755 mmHg 69%
23:00 +28°C° 0 mm 3 mps 754 mmHg 70%

7 December, Monday

Time Temperature Precipitation Wind Pressure Humidity
00:00 +28°C° 0 mm 3 mps 754 mmHg 71%
01:00 +28°C° 0 mm 3 mps 754 mmHg 72%
02:00 +27°C° 0 mm 3 mps 754 mmHg 73%
03:00 +27°C° 0 mm 3 mps 754 mmHg 74%
04:00 +26°C° 0 mm 2 mps 754 mmHg 75%
05:00 +27°C° 0 mm 3 mps 754 mmHg 70%
06:00 +28°C° 0 mm 3 mps 755 mmHg 66%
07:00 +29°C° 0 mm 3 mps 755 mmHg 62%
08:00 +33°C° 0 mm 3 mps 755 mmHg 54%
09:00 +35°C° 0 mm 3 mps 755 mmHg 46%
10:00 +38°C° 0 mm 3 mps 755 mmHg 37%
11:00 +40°C° 0 mm 4 mps 755 mmHg 35%
12:00 +40°C° 0 mm 5 mps 754 mmHg 33%
13:00 +41°C° 0 mm 5 mps 753 mmHg 31%
14:00 +40°C° 0 mm 5 mps 753 mmHg 36%
15:00 +37°C° 0 mm 4 mps 752 mmHg 40%
16:00 +35°C° 0 mm 4 mps 752 mmHg 45%
17:00 +34°C° 0 mm 4 mps 753 mmHg 50%
18:00 +33°C° 0 mm 4 mps 753 mmHg 56%
19:00 +30°C° 0 mm 4 mps 754 mmHg 61%
20:00 +29°C° 0.4 mm 4 mps 754 mmHg 68%
21:00 +28°C° 0.4 mm 4 mps 755 mmHg 75%
22:00 +26°C° 0.4 mm 4 mps 755 mmHg 82%
23:00 +26°C° 0.9 mm 3 mps 755 mmHg 83%

8 December, Tuesday

Time Temperature Precipitation Wind Pressure Humidity
00:00 +26°C° 0.9 mm 3 mps 755 mmHg 84%
01:00 +26°C° 0.9 mm 2 mps 754 mmHg 85%
02:00 +25°C° 0.1 mm 2 mps 754 mmHg 85%
03:00 +25°C° 0.1 mm 2 mps 754 mmHg 86%
04:00 +25°C° 0.1 mm 1 mps 754 mmHg 86%
05:00 +26°C° 0 mm 1 mps 755 mmHg 82%
06:00 +27°C° 0 mm 1 mps 755 mmHg 78%
07:00 +28°C° 0 mm 1 mps 756 mmHg 74%
08:00 +30°C° 0 mm 2 mps 756 mmHg 60%
09:00 +32°C° 0 mm 2 mps 756 mmHg 46%
10:00 +35°C° 0 mm 3 mps 756 mmHg 32%
11:00 +36°C° 0 mm 3 mps 755 mmHg 27%
12:00 +37°C° 0 mm 3 mps 755 mmHg 22%
13:00 +37°C° 0 mm 4 mps 755 mmHg 17%
14:00 +37°C° 0 mm 4 mps 755 mmHg 17%
15:00 +37°C° 0 mm 4 mps 754 mmHg 16%
16:00 +37°C° 0 mm 4 mps 754 mmHg 15%
17:00 +34°C° 0 mm 4 mps 755 mmHg 20%
18:00 +32°C° 0 mm 4 mps 756 mmHg 25%
19:00 +29°C° 0 mm 4 mps 757 mmHg 29%
20:00 +27°C° 0 mm 5 mps 757 mmHg 43%
21:00 +26°C° 0 mm 6 mps 758 mmHg 58%
22:00 +23°C° 0 mm 6 mps 759 mmHg 72%
23:00 +23°C° 0 mm 6 mps 759 mmHg 69%

9 December, Wednesday

Time Temperature Precipitation Wind Pressure Humidity
00:00 +22°C° 0 mm 6 mps 759 mmHg 67%
01:00 +22°C° 0 mm 5 mps 760 mmHg 65%
02:00 +21°C° 0 mm 5 mps 760 mmHg 64%
03:00 +21°C° 0 mm 5 mps 760 mmHg 64%
04:00 +21°C° 0 mm 5 mps 760 mmHg 63%
05:00 +21°C° 0 mm 5 mps 761 mmHg 61%
06:00 +22°C° 0 mm 5 mps 761 mmHg 60%
07:00 +22°C° 0 mm 5 mps 762 mmHg 58%
08:00 +23°C° 0 mm 5 mps 762 mmHg 55%
09:00 +25°C° 0 mm 5 mps 762 mmHg 53%
10:00 +25°C° 0 mm 5 mps 762 mmHg 51%
11:00 +26°C° 0 mm 5 mps 762 mmHg 49%
12:00 +27°C° 0 mm 5 mps 761 mmHg 47%
13:00 +27°C° 0 mm 5 mps 761 mmHg 45%
14:00 +27°C° 0 mm 5 mps 761 mmHg 46%
15:00 +27°C° 0 mm 5 mps 761 mmHg 48%
16:00 +26°C° 0 mm 5 mps 760 mmHg 49%
17:00 +25°C° 0 mm 4 mps 761 mmHg 53%
18:00 +23°C° 0 mm 4 mps 761 mmHg 58%
19:00 +22°C° 0 mm 3 mps 762 mmHg 62%
20:00 +22°C° 0 mm 3 mps 762 mmHg 63%
21:00 +22°C° 0 mm 3 mps 762 mmHg 65%
22:00 +21°C° 0 mm 3 mps 763 mmHg 66%
23:00 +21°C° 0 mm 3 mps 762 mmHg 66%
Show more

We Need Your Consent

Meteoprog and our Service Providers may store and access personal data such as cookies, device identifiers or other similar technologies on your device and process such data to personalise content and ads, as well as provide social media features and to analyse the traffic.

  • Store and/or access information on your device

    Cookies, device identifiers or other information can be stored or accessed on your device for the purposes indicated above.

  • Personalised ads and content, ad and content measurement, audience insights, and products development

    Ads and content can be personalised based on a profile. More data can be added to better personalise ads and content. Ad and content performance can be measured. Insights about the audience who saw the ads and content can be derived. Such data can be used to develop or improve user’s experience, systems and software.

By clicking ‘I Agree’ you will allow the use of indicated cookies, device identifiers, web beacons or other similar technologies. Your settings can be changed in the browser on your device.

For certain purposes, legitimate interests may be relied on, rather than consent. You can read more about this in our Privacy and Cookie Policy.